星链-4195 (STARLINK-4195 )

导读 | 星芒AI

STARLINK-4195 是 SpaceX Starlink 项目中的一颗低轨通信卫星,属于该系列的第4195号卫星。它旨在为全球用户提供高速互联网服务,特别是在网络基础设施薄弱的地区。该卫星运行于约550公里高的近地轨道,采用先进的通信技术,支持宽带数据传输。Starlink 卫星群由数千颗卫星组成,致力于构建全球覆盖的卫星互联网系统。STARLINK-4195 于近期成功发射并加入运行星座,为提升全球网络连接能力做出贡献。

基本信息
目录编号:
52870
目录名称:
STARLINK-4195
国际标识:
2022-062AS
轨道中心:
EARTH
卫星名称:
星链-4195
卫星全名:
星链-4195 (STARLINK-4195 )
卫星状态:
在轨 (已飞行1283 天)
发射日期:
2022-06-17 UTC
国别 :
美国 (US)
星等 :
--
轨道信息
数据来源 国际轨道数据
星历时间: 2025-12-21T06:00:02+0800
7小时前
查看轨道信息
半长轴: 6893.941km
偏心率: 0.000223
轨道倾角: 53.218°
近地点辐角 54.345°
升交点赤经 17.587°
平近点角 160.440°
近地点: 514.266km
远地点: 517.342km
周期: 94.943分钟
每日圈数: 15.167061
详细信息
固有亮度:
5
最大亮度:
2.5
卫星平台:
Starlink v1.5
覆盖范围:
全球
运营商:
太空探索技术公司
运营商所在国:
美国
制造商(研发单位):
太空探索技术公司
制造商所在国:
美国
使用方式:
暂无
卫星简介
星链(Starlink)计划是由太空探索技术公司(SpaceX)提出的一个巨型低轨卫星互联网星座项目,计划在2019年至2024年间在太空搭建由约1.2万颗卫星组成的“星链”网络,其中1584颗将部署在地球上空550千米处的近地轨道,并从2020年开始工作。该卫星仍在工作。
2D轨道图
3D轨道图
轨道高度分析图
轨道倾角分析图
轨道综合分析图
查看轨道综合分析图